Regional Weather Roundup
Issued by NWS

Home | Current Version | Previous Version | Graphics & Text | Print | Product List | Glossary On
Versions: 1 2 3 4 5 6 7 8 9 10 11 12 13 14 15 16 17 18 19 20 21 22 23 24 25 26 27 28 29 30 31 32 33 34 35 36 37 38 39 40 41 42 43 44 45 46 47 48 49 50
000
ASUS45 KCYS 170810
RWRWY

WYOMING REGIONAL WEATHER ROUNDUP
NATIONAL WEATHER SERVICE CHEYENNE WY
100 AM MST WED DEC 17 2014

NOTE:  "FAIR" INDICATES FEW OR NO CLOUDS BELOW 12,000 FEET
WITH NO SIGNIFICANT WEATHER AND/OR OBSTRUCTIONS TO VISIBILITY.

WYZ001-170900-
YELLOWSTONE NATIONAL PARK

CITY           SKY/WX    TMP DP  RH WIND       PRES   REMARKS
LK YELLOWSTONE   N/A     20  17  88 CALM      29.95F
W YELLOWSTONE  NOT AVBL

$$
WYZ002>013-054>058-071-098>099-170900-
NORTHERN WYOMING

CITY           SKY/WX    TMP DP  RH WIND       PRES   REMARKS
JACKSON        CLOUDY    21  21 100 SE3       29.97F
CODY           CLOUDY    19  18  93 CALM      29.92F
GREYBULL       CLOUDY    18  15  88 SW3       29.99F
WORLAND        FAIR       6   2  83 SW5       29.97F WCI  -3
SHERIDAN       FOG       19  16  88 CALM      29.98F VSB 1/2
BUFFALO        FOG       18  16  92 N7        29.92F VSB 1/4 WCI   9
GILLETTE       CLOUDY    18  16  92 S17       29.95F WCI   3
HULETT           N/A    N/A N/A N/A MISG        N/A
NEWCASTLE      CLOUDY    19  19 100 SE8       30.04F WCI   9

$$
WYZ014>020-022>026-101>103-170900-
CENTRAL WYOMING

CITY           SKY/WX    TMP DP  RH WIND       PRES   REMARKS
BIG PINEY      CLOUDY    22  17  81 SE6       30.00R WCI  14
PINEDALE       CLOUDY    21  19  93 SE3       30.00S
DUBOIS         CLOUDY    28  19  69 NW7       29.90S WCI  21
LANDER         MOCLDY    10   6  84 CALM      29.95F
RIVERTON       HAZE      17  12  80 N5        29.96F VSB 1/4 WCI  10
CASPER         FAIR      26  19  74 W9        29.94F WCI  17
DOUGLAS        FAIR      10   6  84 CALM      29.97F

$$
WYZ021-027>030-104>119-170900-
SOUTHERN WYOMING

CITY           SKY/WX    TMP DP  RH WIND       PRES   REMARKS
EVANSTON       MOCLDY    27  18  69 SW7       29.98F WCI  19
FORT BRIDGER   FAIR      24  20  87 W5        30.01F WCI  18
ROCK SPRINGS   FAIR      15  13  91 CALM      30.00F
DIXON          CLOUDY    19  18  93 CALM      30.05F
RAWLINS        FAIR      26  19  74 SW14      29.99S WCI  14
SARATOGA       PTSUNNY   21  19  93 CALM      30.01F
LARAMIE        FAIR      16  13  88 S8        29.99S WCI   5
CHEYENNE       CLOUDY    24  18  77 W6        29.97F WCI  17
TORRINGTON     FAIR      14  12  92 SE3       30.01F
PINE BLUFFS    FAIR      16  14  93 S5        30.01F WCI   9

$$


USA.gov is the U.S. government's official web portal to all federal, state and local government web resources and services.